Location: Ch�risy
(50.2331°N, 2.9131°E)
Time: 02:29:55
(UTC+00:00)

Cosmos 2297 Rocket - Pass Details

Date: 17 January 2021
Orbit: 841 x 842 km, 71.0° (Epoch: 28 February)

Event Time Altitude Azimuth Distance (km) Brightness Sun altitude
Rises 17:26:51 0° 242° (WSW) 3,391 7.4 -10.8°
Reaches altitude 10° 17:29:34 10° 253° (WSW) 2,459 6.2 -11.2°
Maximum altitude 17:34:33 31° 315° (NW) 1,445 3.7 -12.0°
Drops below altitude 10° 17:39:32 10° 16° (NNE) 2,470 4.3 -12.7°
Enters shadow 17:41:10 - 24° (NNE) 3,013 4.7 -13.0°
